Showing default

ORBCOMM FM 117, 41188

Orbit data source: Space-Track

ORBCOMM FM 117, 41188 is a payload satellite owned by Orbcomm (US) in LEO that was launched on Tue, 22 Dec 2015 UTC via an FALCON 9 launch vehicle from the Air Force Eastern Test Range (AFETR). Payload-class satellites include a variety of spacecraft equipped with specific instruments for various scientific and technological missions. These include communications satellites like Starlink; space stations such as the ISS; scientific satellites like the Hubble; Earth observation satellites from companies like Planet Labs, Umbra, and HawkEye 360; GPS; miniature CubeSats for education and research; and military/defense satellites.

Loading next visibility...
Identifier
41188, 2015-081K
Orbit
LEO
Country
Flag of USUS / ORB
Related business
Manufacturer
SNC Louisville
Mission
Operational Commercial Communications
Bus & Motor
SN-100A, Unknown motor
Mass
172 kg wet, 158 kg dry
Launch date (UTC)
2015-12-22 (10 years ago)
Launch vehicle
FALCON 9
Launch site
Air Force Eastern Test Range (AFETR)
Object type
Payload
Rocket body
Debris
Shape & HBR
Box + 1 Pan + 1 Ant, 10.3 m
Radar Cross Section
2.222 m², Medium (>0.1 m² and < 1m²)

Expand to show TLE details & history
Last TLE update: 17 hours ago

TLE from 17 hours ago
0 ORBCOMM FM 117
1 41188U 15081K   25308.86494325  .00000693  00000-0  18436-3 0  9999
2 41188  46.9998 161.1999 0003254 252.5568 107.4962 14.58459454527374
Epoch: 2025-11-04T20:45Z
TLE epoch observation values (Epoch: 2025-11-04T20:45:31.096Z)
Latitude
-0.00003°
Longitude
165.47446°
Altitude
699.061 km
Speed
7.508 km/s
True Right ascension
10h 44m 47s
True Declination
0° 00' 00"
Sunlit
Object was in daylight at epoch
Visualization orbit readout
Latitude
Unknown
Longitude
Unknown
Altitude
Unknown
Speed
Unknown
Apparent Right ascension
Unknown
Apparent Declination
Unknown
Sunlit
N/A
Visualization observer readout
Local Sidereal Time
09:30:07
Azimuth
Unknown
Elevation
Unknown
Doppler factor
Unknown
Orbital elements
Apogee altitude
701.691 km
Perigee altitude
697.084 km
Semi-major axis
7,077.525 km
Eccentricity
0.00033
Inclination
46.9998°
RAAN
161.1999°
Arg. of periapsis
252.5568°
True anomaly
107.53176°
Mean anomaly
107.4962°
Eccentric anomaly
107.51398°
Mean motion
3.6452 °/min
Orbital period
98.76 mins
BSTAR
0.00018436
Loading maneuver chart data...
Computing Atmospheric mass density...
Loading historical data...
Loading historical data...
Loading historical data...
Loading historical data...
Loading historical data...
Loading historical data...
Loading historical data...

Documentation

Showing up to 5 results
|